User: anonymous   Login
Location: Aalen
(48.8330°N, 10.1000°E)
Time: 23:10:24
(UTC+01:00)
Language:

DOVE 4 - Orbit

View from above orbital plane
View from above orbital plane
View from above satellite
View from above satellite

Ground track
Ground track

The orbit data is extracted from the following two-line orbital elements,

1 39430U 13066Q   23081.45033626  .00003278  00000-0  57948-3 0  9994
2 39430  97.7898 337.6260 0145204 247.5832 110.9881 14.61371120496871
Epoch (UTC): 22 March 2023 10:48:29
Eccentricity: 0.0145204
inclination: 97.7898°
perigee height: 586 km
apogee height: 791 km
right ascension of ascending node: 337.6260°
argument of perigee: 247.5832°
revolutions per day: 14.61371120
mean anomaly at epoch: 110.9881°
orbit number at epoch: 49687

The dashed part of the orbit path shows where the satellite is in the earth's shadow,  

DLR